Valparaiso, FL

11:25 PM CDT on March 23, 2017 (GMT -0500)
Eglin Air Force Base

Weather History for KVPS - January, 2014

Change the Weather History Date:

Saturday, January 25, 2014

  Actual Average Record
Temperature  
Mean Temperature 46 °F -  
Max Temperature 56 °F 62 °F 78 °F (1971)
Min Temperature 35 °F 39 °F 11 °F (1963)
Degree Days  
Heating Degree Days 20    
Moisture  
Dew Point 36 °F    
Average Humidity 74    
Maximum Humidity 94    
Minimum Humidity 51    
Precipitation  
Precipitation 0.00 in - - ()
Sea Level Pressure  
Sea Level Pressure 30.16 in    
Wind  
Wind Speed 4 mph (WNW)    
Max Wind Speed 16 mph    
Max Gust Speed 24 mph    
Visibility 10 miles    
Events Rain    
Averages and records for this station are not official NWS values.
T = Trace of Precipitation, MM = Missing Value Source: NWS Daily Summary

Daily Weather History Graph

Daily Weather History Graph

Search for Another Location

Airport or City:

Trip Planner

Search our weather history database for the weather conditions in past years. The results will help you decide how hot, cold, wet, or windy it might be!

Date:

Astronomy

Jan. 25, 2014 Rise Set
Actual Time 6:40 AM CST 5:16 PM CST
Civil Twilight 6:15 AM CST 5:42 PM CST
Nautical Twilight 5:46 AM CST 6:11 PM CST
Astronomical Twilight 5:17 AM CST 6:39 PM CST
Moon 1:14 AM CST (1/25) 12:15 PM CST (1/25)
Length of Visible Light 11h 26m
Length of Day
10h 35m
Waning Crescent, 34% of the Moon is Illuminated
Jan 25
Waning Crescent
Jan 30
New
Feb 6
First Quarter
Feb 14
Full
Feb 22
Last Quarter

Hourly Weather History & Observations

Time (CST) Temp. Windchill Dew Point Humidity Pressure Visibility Wind Dir Wind Speed Gust Speed Precip Events Conditions
12:55 AM 37.4 °F - 20.7 °F 51% 30.31 in 10.0 mi Calm Calm - N/A   Overcast
1:58 AM 37.0 °F - 22.3 °F 55% 30.31 in 10.0 mi Calm Calm - N/A   Mostly Cloudy
2:16 AM 37.4 °F 33.8 °F 24.8 °F 60% 30.27 in 10.0 mi North 4.6 mph - N/A   Light Drizzle
2:27 AM 35.6 °F - 24.8 °F 65% 30.27 in 10.0 mi Calm Calm - N/A   Overcast
2:40 AM 35.6 °F 32.8 °F 24.8 °F 65% 30.26 in 10.0 mi North 3.5 mph - N/A Rain Light Rain
2:55 AM 36.1 °F - 24.3 °F 62% 30.27 in 10.0 mi Calm Calm - 0.00 in   Overcast
3:55 AM 36.9 °F - 26.1 °F 65% 30.25 in 10.0 mi Calm Calm - N/A   Overcast
4:37 AM 37.4 °F - 26.6 °F 65% 30.22 in 10.0 mi Calm Calm - N/A   Overcast
4:59 AM 37.2 °F 33.6 °F 28.2 °F 70% 30.25 in 10.0 mi North 4.6 mph - N/A   Overcast
5:55 AM 38.3 °F - 30.7 °F 74% 30.23 in 10.0 mi Calm Calm - N/A   Overcast
6:56 AM 40.1 °F 35.3 °F 34.2 °F 79% 30.25 in 10.0 mi NW 6.9 mph - N/A   Overcast
7:21 AM 41.0 °F 37.1 °F 35.6 °F 81% 30.21 in 10.0 mi WNW 5.8 mph - N/A Rain Light Rain
7:28 AM 41.0 °F 37.1 °F 35.6 °F 81% 30.21 in 10.0 mi WNW 5.8 mph - N/A   Overcast
7:55 AM 42.8 °F 38.6 °F 37.4 °F 81% 30.22 in 10.0 mi WNW 6.9 mph - 0.00 in Rain Light Rain
8:40 AM 44.6 °F 41.4 °F 39.2 °F 81% 30.19 in 10.0 mi WNW 5.8 mph - N/A   Overcast
8:55 AM 45.1 °F 41.4 °F 39.0 °F 79% 30.22 in 10.0 mi WNW 6.9 mph - 0.00 in   Overcast
9:55 AM 46.9 °F - 40.6 °F 79% 30.22 in 10.0 mi WNW 8.1 mph - N/A   Overcast
10:37 AM 48.2 °F - 41.0 °F 76% 30.18 in 10.0 mi West 8.1 mph - N/A   Overcast
10:55 AM 48.2 °F - 42.4 °F 80% 30.20 in 10.0 mi West 8.1 mph - N/A   Overcast
11:55 AM 51.3 °F - 43.9 °F 76% 30.14 in 10.0 mi West 10.4 mph - N/A   Overcast
12:55 PM 51.6 °F - 44.1 °F 75% 30.11 in 10.0 mi WNW 10.4 mph - N/A   Overcast
1:55 PM 54.1 °F - 45.3 °F 72% 30.07 in 10.0 mi West 9.2 mph - N/A   Overcast
2:25 PM 55.4 °F - 46.4 °F 72% 30.05 in 10.0 mi WSW 12.7 mph - N/A   Mostly Cloudy
2:42 PM 55.4 °F - 46.4 °F 72% 30.01 in 10.0 mi West 16.1 mph 23.0 mph N/A   Scattered Clouds
2:55 PM 56.3 °F - 46.4 °F 69% 30.03 in 10.0 mi West 16.1 mph 24.2 mph N/A   Scattered Clouds
3:55 PM 55.4 °F - 46.2 °F 71% 30.04 in 10.0 mi West 11.5 mph 20.7 mph N/A   Partly Cloudy
4:55 PM 53.4 °F - 43.5 °F 69% 30.03 in 10.0 mi WSW 8.1 mph - N/A   Partly Cloudy
5:55 PM 50.0 °F - 42.1 °F 74% 30.04 in 10.0 mi WSW 6.9 mph - N/A   Partly Cloudy
6:55 PM 49.1 °F - 41.2 °F 74% 30.04 in 10.0 mi WSW 5.8 mph - N/A   Partly Cloudy
7:55 PM 48.2 °F - 39.9 °F 73% 30.04 in 10.0 mi West 5.8 mph - N/A   Partly Cloudy
8:55 PM 43.5 °F 38.9 °F 38.8 °F 84% 30.06 in 10.0 mi NW 8.1 mph - N/A   Partly Cloudy
9:55 PM 41.2 °F 36.6 °F 37.4 °F 86% 30.07 in 10.0 mi WNW 6.9 mph - N/A   Partly Cloudy
10:55 PM 40.8 °F 36.2 °F 37.8 °F 89% 30.07 in 10.0 mi WNW 6.9 mph - N/A   Clear
11:55 PM 38.7 °F 33.6 °F 37.0 °F 94% 30.06 in 10.0 mi NW 6.9 mph - N/A   Partly Cloudy